Tracking 22455 objects as of 9-Mar-2021
HD Live streaming from Space Station
objects crossing your sky now

COSMOS 249 DEB

Track COSMOS 249 DEB now!
10-day predictions


NORAD ID: 3923
Int'l Code: 1968-091BR
Perigee: 644.6 km
Apogee: 1,631.0 km
Inclination: 62.2 °
Period: 107.9 minutes
Semi major axis: 7508 km
RCS: 0.0428 m2 (small)
Launch date: October 20, 1968
Source: Commonwealth of Independent States (former USSR) (CIS)
Launch site: TYURATAM MISSILE AND SPACE COMPLEX (TTMTR)

Note: This is SATELLITE DEBRIS
aabbcc
Your satellite tracking list
Your tracking list is empty




NASA's NSSDC Master Catalog

Two Line Element Set (TLE):
1 03923U 68091BR  21067.50019051 -.00000034  00000-0  41504-4 0  9994
2 03923  62.2258 155.4805 0656821 102.5922 264.9316 13.34283288458719
Source of the keplerian elements: AFSPC